Regional Weather Roundup
Issued by NWS

Home | Current Version | Previous Version | Graphics & Text | Print | Product List | Glossary On
Versions: 1 2 3 4 5 6 7 8 9 10 11 12 13 14 15 16 17 18 19 20 21 22 23 24 25 26 27 28 29 30 31 32 33 34 35 36 37 38 39 40 41 42 43 44 45 46 47 48 49 50
000
ASUS43 KLMK 180802
RWRKY
KENTUCKY REGIONAL WEATHER ROUNDUP
NATIONAL WEATHER SERVICE LOUISVILLE KY
400 AM EDT SAT APR 18 2015

NOTE "FAIR" INDICATES FEW OR NO CLOUDS BELOW 12,000 FEET
WITH NO SIGNIFICANT WEATHER AND/OR OBSTRUCTIONS TO VISIBILITY.

KYZ001>023-026-027-061>063-070>075-180900-
WESTERN AND SOUTH CENTRAL KENTUCKY

CITY           SKY/WX    TMP DP  RH WIND       PRES   REMARKS
PADUCAH        FOG       57  56  96 CALM      29.99F VSB 1
HENDERSON      CLEAR     55  52  88 CALM      30.00S
OWENSBORO      CLEAR     59  58  96 CALM      30.02S FOG
HOPKINSVILLE   CLEAR     58  57  97 CALM      30.01S
BOWLING GREEN  CLEAR     56  53  90 CALM      30.01F FOG
GLASGOW        NOT AVBL
$$

KYZ024-025-028>034-038-045-046-053-180900-
NORTH CENTRAL KENTUCKY

CITY           SKY/WX    TMP DP  RH WIND       PRES   REMARKS
LOUISVILLE/SDF CLEAR     61  57  87 CALM      30.03F
LOUISVILLE/LOU CLEAR     57  54  89 CALM      30.03F
FORT KNOX      CLEAR     55  54  96 CALM      30.01F FOG
$$

KYZ035>037-039>044-047>052-055>060-089>105-180900-
NORTHEAST KENTUCKY

CITY           SKY/WX    TMP DP  RH WIND       PRES   REMARKS
LEXINGTON      CLEAR     56  54  93 CALM      30.05S
COVINGTON      CLEAR     55  45  68 CALM      30.06R
FRANKFORT      PTCLDY    52  50  93 CALM      30.03F FOG
$$

KYZ054-064>069-076>088-106>120-180900-
SOUTHEAST KENTUCKY

CITY           SKY/WX    TMP DP  RH WIND       PRES   REMARKS
JACKSON        CLOUDY    62  52  69 CALM      30.06R
LONDON         CLEAR     56  51  84 CALM      30.05R
SOMERSET       NOT AVBL
MIDDLESBORO    CLEAR     53  53 100 CALM      30.05S
MONTICELLO     FOG       53  53 100 CALM      30.07S VSB 1/4
$$



USA.gov is the U.S. government's official web portal to all federal, state and local government web resources and services.